Stations météo

Publicité
Clermont-Ferrand, France (7460): Température de l'air & dewpoint: 11.02.2020 22:00:00 - 17.02.2020 22:00:00 (CET)Clermont-Ferrand, France (7460): Température de l'air 5cm: 11.02.2020 22:00:00 - 17.02.2020 22:00:00 (CET)Clermont-Ferrand, France (7460): Température de l'air -20cm & Température de l'air -100cm: 11.02.2020 22:00:00 - 17.02.2020 22:00:00 (CET)Clermont-Ferrand, France (7460): Vitesse du vent & gusts: 11.02.2020 22:00:00 - 17.02.2020 22:00:00 (CET)Clermont-Ferrand, France (7460): Direction du vent: 11.02.2020 22:00:00 - 17.02.2020 22:00:00 (CET)Clermont-Ferrand, France (7460): reduced air pressure: 11.02.2020 22:00:00 - 17.02.2020 22:00:00 (CET)Clermont-Ferrand, France (7460): visibility: 11.02.2020 22:00:00 - 17.02.2020 22:00:00 (CET)Clermont-Ferrand, France (7460): Ensoleillement: 11.02.2020 22:00:00 - 17.02.2020 22:00:00 (CET)Clermont-Ferrand, France (7460): Quantités de précipitations: 11.02.2020 22:00:00 - 17.02.2020 22:00:00 (CET)
Date & Time tt [°C] td [°C] tt 5cm [°C] tt -20cm [°C] tt -100cm [°C] ff [km/h] ff [knt] fx [km/h] fx [knt] dd ppp [hPa] vv [km] sd [min] rr [mm]
17.02.2020 22:00:00 8,8 3,0 - - - 18 10 35 19 W 1029,5 55 - -
17.02.2020 21:00:00 8,9 3,1 6,8 8,5 9,2 13 7 44 24 WNW 1028,6 60 0 0,0
17.02.2020 20:00:00 9,0 3,4 7,1 8,5 9,2 15 8 35 19 WSW 1027,9 60 0 0,0
17.02.2020 19:00:00 9,0 3,2 7,7 8,5 9,1 15 8 32 17 W 1027,6 60 0 0,0
17.02.2020 18:00:00 10,2 3,5 10,0 8,5 9,1 16 9 46 25 SW 1026,1 60 45 0,0
17.02.2020 17:00:00 10,2 3,7 9,9 8,4 9,1 14 8 28 15 SSW 1025,1 52 0 0,0
17.02.2020 16:00:00 10,6 3,8 10,4 8,4 9,1 16 8 36 19 SW 1024,5 48 0 0,0
17.02.2020 15:00:00 10,6 5,4 10,1 8,4 9,1 10 6 32 17 WSW 1024,4 55 0 0,0
17.02.2020 14:00:00 10,5 5,3 9,6 8,4 9,1 13 7 35 19 WSW 1024,2 60 0 0,0
17.02.2020 13:00:00 9,8 7,6 9,4 8,4 9,1 10 6 16 9 S 1024,6 34 0 0,0
17.02.2020 12:00:00 9,4 8,3 9,1 8,4 9,1 8 4 17 9 ENE 1024,5 19 0 0,4
17.02.2020 11:00:00 9,7 8,1 8,9 8,4 9,1 4 2 22 12 NE 1024,0 53 0 0,0
17.02.2020 10:00:00 10,7 8,5 10,2 8,4 9,1 12 6 30 16 NNE 1023,1 18 0 0,0
17.02.2020 09:00:00 12,1 6,4 11,4 8,4 9,1 24 13 45 24 S 1020,4 60 0 0,0
17.02.2020 08:00:00 12,0 6,3 11,4 8,3 9,1 34 18 50 27 S 1019,2 60 0 0,0
17.02.2020 07:00:00 12,0 6,3 11,4 8,3 9,1 35 19 53 29 S 1018,8 60 0 0,0
17.02.2020 06:00:00 12,1 6,2 11,6 8,3 9,1 36 20 52 28 S 1018,8 60 0 0,0
17.02.2020 05:00:00 12,2 6,0 11,5 8,3 9,1 36 20 58 31 S 1019,1 60 0 0,0
17.02.2020 04:00:00 12,1 6,4 11,1 8,2 9,1 35 19 59 32 S 1019,0 60 0 0,0
17.02.2020 03:00:00 12,0 6,1 10,9 8,2 9,1 40 22 55 30 S 1019,3 60 0 0,0
17.02.2020 02:00:00 11,9 6,0 11,1 8,2 9,1 37 20 61 33 S 1020,0 60 0 0,0
17.02.2020 01:00:00 12,2 5,8 11,3 8,2 9,1 42 23 60 32 S 1019,8 60 0 0,0
17.02.2020 00:00:00 12,4 5,5 11,3 8,2 9,1 35 19 57 31 S 1019,6 60 0 0,0
16.02.2020 23:00:00 12,2 5,8 11,0 8,1 9,1 35 19 55 30 S 1019,6 60 0 0,0
16.02.2020 22:00:00 12,7 5,8 11,8 8,1 9,1 34 19 53 28 S 1019,7 60 0 0,0
16.02.2020 21:00:00 13,3 5,9 12,4 8,1 9,1 34 18 53 29 S 1019,1 60 0 0,0
16.02.2020 20:00:00 14,1 6,0 13,2 8,1 9,1 36 19 55 30 S 1018,4 60 0 0,0
16.02.2020 19:00:00 14,9 6,2 13,5 8,0 9,1 29 16 49 26 S 1018,0 60 0 0,0
16.02.2020 18:00:00 14,9 6,5 14,0 8,0 9,1 33 18 48 26 S 1017,4 60 0 0,0
16.02.2020 17:00:00 16,2 6,0 15,7 8,0 9,1 31 17 50 27 S 1016,6 55 24 0,0
16.02.2020 16:00:00 16,0 6,7 15,9 8,0 9,1 32 17 50 27 S 1016,7 46 0 0,0
16.02.2020 15:00:00 15,7 6,7 15,7 8,0 9,1 34 19 53 29 S 1016,9 49 0 0,0
16.02.2020 14:00:00 15,4 6,4 15,2 8,0 9,1 32 18 53 29 S 1017,3 48 0 0,0
16.02.2020 13:00:00 14,6 6,2 14,4 8,0 9,1 39 21 55 30 S 1017,7 53 0 0,0
16.02.2020 12:00:00 13,8 5,2 13,0 8,0 9,1 39 21 57 31 S 1018,7 52 0 0,0
16.02.2020 11:00:00 12,6 3,8 11,0 8,0 9,1 39 21 63 34 S 1018,7 41 0 0,0
16.02.2020 10:00:00 11,1 2,9 10,6 8,0 9,1 40 22 65 35 S 1018,7 57 0 0,0
16.02.2020 09:00:00 11,1 1,9 10,4 8,0 9,1 40 22 67 36 S 1018,9 57 0 0,0
16.02.2020 08:00:00 11,1 1,9 9,8 8,0 9,1 38 21 61 33 S 1019,0 60 0 0,0
16.02.2020 07:00:00 10,5 2,6 9,5 7,9 9,1 29 15 46 25 S 1019,8 60 0 0,0
16.02.2020 06:00:00 10,2 1,8 9,2 7,9 9,1 28 15 48 26 S 1019,5 60 0 0,0
16.02.2020 05:00:00 10,4 1,7 9,2 7,9 9,1 18 10 30 16 SSW 1019,9 60 0 0,0
16.02.2020 04:00:00 10,5 1,8 9,5 7,9 9,1 16 9 35 19 SSW 1020,5 60 0 0,0
16.02.2020 03:00:00 11,5 2,2 10,5 7,9 9,1 17 9 42 23 S 1020,9 60 0 0,0
16.02.2020 02:00:00 11,5 2,8 10,7 7,9 9,1 31 17 49 26 S 1020,9 60 0 0,0
16.02.2020 01:00:00 11,8 2,8 10,9 7,8 9,1 26 14 37 20 S 1021,8 60 0 0,0
16.02.2020 00:00:00 12,5 2,3 10,4 7,8 9,1 20 11 34 19 S 1022,0 60 0 0,0
15.02.2020 23:00:00 11,8 2,3 10,0 7,8 9,1 13 7 35 19 S 1022,7 60 0 0,0
15.02.2020 22:00:00 12,4 2,3 10,6 7,8 9,1 14 7 29 16 SW 1021,8 60 0 0,0
15.02.2020 21:00:00 13,2 2,4 10,7 7,7 9,1 10 6 27 15 S 1021,8 60 0 0,0
15.02.2020 20:00:00 13,6 1,6 10,0 7,7 9,1 21 11 31 17 S 1021,4 60 0 0,0
15.02.2020 19:00:00 14,4 2,0 9,8 7,7 9,1 20 11 29 15 S 1020,6 51 0 0,0
15.02.2020 18:00:00 15,4 2,2 10,5 7,7 9,1 17 9 28 15 SSW 1020,1 60 0 0,0
15.02.2020 17:00:00 17,4 4,3 16,9 7,7 9,1 7 4 26 14 N 1019,7 58 22 0,0
15.02.2020 16:00:00 20,1 0,5 22,1 7,7 9,1 13 7 29 16 S 1019,0 52 60 0,0
15.02.2020 15:00:00 18,5 1,0 20,7 7,7 9,1 17 9 32 17 S 1019,2 52 60 0,0
15.02.2020 14:00:00 16,5 3,5 17,7 7,7 9,1 19 10 29 16 SSW 1020,5 60 60 0,0
15.02.2020 13:00:00 13,0 2,8 16,2 7,8 9,1 10 5 31 17 S 1022,0 57 60 0,0
15.02.2020 12:00:00 10,7 1,8 13,5 7,8 9,1 9 5 26 14 S 1024,0 46 60 0,0
15.02.2020 11:00:00 7,9 1,9 9,8 7,8 9,1 14 8 26 14 SSW 1025,0 28 60 0,0
15.02.2020 10:00:00 5,5 1,8 5,2 7,9 9,1 18 10 29 16 S 1025,4 39 60 0,0
15.02.2020 09:00:00 2,0 0,2 -2,0 7,9 9,1 8 5 17 9 S 1026,2 33 45 0,0
15.02.2020 08:00:00 -0,5 -2,1 -1,9 7,9 9,1 7 4 15 8 SE 1026,7 39 0 0,0
15.02.2020 07:00:00 1,1 -0,5 -0,7 7,9 9,1 9 5 39 21 NW 1026,1 47 0 0,0
15.02.2020 06:00:00 1,5 0,0 -0,8 8,0 9,1 7 4 29 16 SSE 1025,9 45 0 0,0
15.02.2020 05:00:00 1,8 0,3 0,6 8,0 9,1 16 9 39 21 S 1026,1 45 0 0,0
15.02.2020 04:00:00 2,2 0,7 1,6 8,0 9,1 19 10 40 21 S 1026,3 30 0 0,0
15.02.2020 03:00:00 2,8 1,2 1,6 8,0 9,1 6 4 24 13 SE 1026,6 32 0 0,0
15.02.2020 02:00:00 2,7 0,9 -0,5 8,0 9,1 7 4 22 12 ESE 1027,2 19 0 0,0
15.02.2020 01:00:00 1,4 0,4 -3,8 8,0 9,1 5 3 8 5 WSW 1028,1 21 0 0,0
15.02.2020 00:00:00 1,7 0,8 -3,8 8,0 9,1 2 1 5 3 SE 1027,6 15 0 0,0
14.02.2020 23:00:00 2,3 1,0 -3,2 8,0 9,1 2 1 7 4 NNW 1027,9 28 0 0,0
14.02.2020 22:00:00 3,9 1,8 -2,0 8,0 9,1 0 0 6 3 N 1027,7 31 0 0,0
14.02.2020 21:00:00 5,0 2,0 -0,9 7,9 9,1 6 3 8 5 W 1027,5 37 0 0,0
14.02.2020 20:00:00 6,3 2,9 0,6 7,9 9,1 5 3 8 4 W 1027,5 51 0 0,0
14.02.2020 19:00:00 6,8 2,7 1,9 7,9 9,1 3 2 10 5 S 1027,1 52 0 0,0
14.02.2020 18:00:00 7,4 2,3 5,0 7,9 9,1 6 3 19 10 NE 1026,7 60 22 0,0
14.02.2020 17:00:00 10,5 3,1 12,9 7,9 9,1 13 7 21 11 NNE 1025,9 42 52 0,0
14.02.2020 16:00:00 10,7 3,5 12,7 7,9 9,1 10 5 23 12 NNE 1026,2 57 6 0,0
14.02.2020 15:00:00 11,0 3,5 12,5 7,8 9,1 6 3 21 12 NNE 1026,4 59 6 0,0
14.02.2020 14:00:00 9,5 6,2 10,4 7,9 9,1 11 6 26 14 NNW 1026,6 57 4 0,0
14.02.2020 13:00:00 10,3 4,6 11,0 7,9 9,1 7 4 14 8 NE 1026,9 59 8 0,0
14.02.2020 12:00:00 9,7 4,5 9,1 7,9 9,1 8 4 20 11 W 1027,4 51 2 0,0
14.02.2020 11:00:00 9,1 5,1 9,5 7,9 9,1 12 7 22 12 N 1026,7 60 3 0,0
14.02.2020 10:00:00 8,4 4,8 7,2 7,8 9,1 9 5 15 8 NE 1026,2 50 18 0,0
14.02.2020 09:00:00 6,5 5,9 1,7 7,9 9,1 4 2 14 7 N 1026,4 26 8 0,0
14.02.2020 08:00:00 5,6 5,0 2,5 7,8 9,1 8 5 14 8 SE 1025,8 19 0 0,2
14.02.2020 07:00:00 6,5 5,8 6,0 7,9 9,1 4 2 13 7 NE 1024,7 6 0 0,2
14.02.2020 06:00:00 6,7 5,5 6,1 7,9 9,1 6 3 13 7 E 1023,8 56 0 0,0
14.02.2020 05:00:00 6,9 5,2 6,2 7,9 9,1 10 6 14 7 E 1023,2 54 0 0,0
14.02.2020 04:00:00 8,1 3,9 6,7 7,9 9,1 4 2 30 16 W 1022,6 60 0 0,0
14.02.2020 03:00:00 8,5 3,5 7,6 7,9 9,1 10 5 39 21 W 1021,9 60 0 0,0
14.02.2020 02:00:00 8,8 3,4 7,5 7,9 9,1 13 7 40 22 W 1021,4 60 0 0,0
14.02.2020 01:00:00 8,4 3,2 6,9 7,8 9,1 21 11 44 24 W 1021,3 60 0 0,0
14.02.2020 00:00:00 8,9 3,1 6,6 7,8 9,1 21 11 47 25 WSW 1020,5 59 0 0,0
13.02.2020 23:00:00 8,6 3,2 6,8 7,8 9,1 25 14 52 28 W 1019,9 53 0 0,0
13.02.2020 22:00:00 9,0 1,9 7,6 7,8 9,1 23 12 61 33 WSW 1018,9 43 0 0,0
13.02.2020 21:00:00 9,9 2,0 8,6 7,8 9,1 21 11 74 40 W 1017,5 36 0 0,0
13.02.2020 20:00:00 10,3 3,6 8,8 7,8 9,1 45 24 90 48 W 1014,6 33 0 0,0
13.02.2020 19:00:00 10,0 3,3 8,8 7,8 9,1 49 27 91 49 WSW 1013,3 34 0 0,0
13.02.2020 18:00:00 11,1 2,9 8,1 7,7 9,1 61 33 103 55 W 1012,1 41 0 1,2
13.02.2020 17:00:00 13,7 6,1 11,9 7,8 9,1 58 31 100 54 WSW 1010,2 18 40 0,0
13.02.2020 16:00:00 14,3 6,4 14,2 7,8 9,1 63 34 122 66 WSW 1008,9 16 45 0,0
13.02.2020 15:00:00 14,1 6,0 14,2 7,8 9,1 74 40 117 63 WSW 1008,7 20 49 0,0
13.02.2020 14:00:00 14,2 6,5 15,6 7,8 9,1 56 30 93 50 WSW 1009,3 25 60 0,0
13.02.2020 13:00:00 14,1 6,9 11,5 7,9 9,1 18 10 43 23 S 1011,7 47 10 0,0
13.02.2020 12:00:00 11,6 5,7 10,3 7,9 9,1 31 17 50 27 SE 1013,0 58 0 0,0
13.02.2020 11:00:00 10,4 3,2 8,4 7,9 9,1 33 18 52 28 SSE 1013,9 40 0 0,0
13.02.2020 10:00:00 8,0 1,2 5,3 8,0 9,1 32 18 46 25 S 1015,1 54 0 0,0
13.02.2020 09:00:00 5,7 -1,2 3,9 8,0 9,1 32 17 49 26 S 1015,6 59 0 0,0
13.02.2020 08:00:00 4,5 -1,3 2,9 8,0 9,1 35 19 56 31 S 1015,9 54 0 0,0
13.02.2020 07:00:00 4,1 -1,3 2,5 8,0 9,1 30 16 52 28 SSW 1016,3 60 0 0,0
13.02.2020 06:00:00 3,0 -1,4 1,8 8,1 9,1 19 11 34 18 S 1017,8 60 0 0,0
13.02.2020 05:00:00 2,3 -1,5 0,8 8,1 9,1 17 9 43 23 S 1018,7 57 0 0,0
13.02.2020 04:00:00 1,8 -1,6 0,4 8,1 9,1 26 14 42 23 S 1019,3 54 0 0,0
13.02.2020 03:00:00 1,4 -1,7 -0,1 8,1 9,1 6 3 25 14 SE 1020,8 58 0 0,0
13.02.2020 02:00:00 2,2 -1,2 0,6 8,1 9,1 18 10 32 17 S 1021,4 44 0 0,0
13.02.2020 01:00:00 2,3 -1,5 0,4 8,1 9,1 5 3 15 8 SE 1022,7 60 0 0,0
13.02.2020 00:00:00 1,6 -1,5 0,3 8,1 9,0 3 2 8 4 N 1023,1 57 0 0,0
12.02.2020 23:00:00 2,9 -0,9 -0,1 8,1 9,1 6 3 13 7 WNW 1023,0 48 0 0,0
12.02.2020 22:00:00 1,9 -1,2 -1,6 8,1 9,1 8 5 14 7 S 1023,4 55 0 0,0
12.02.2020 21:00:00 3,8 -0,8 -0,6 8,1 9,1 2 1 8 4 WSW 1023,4 55 0 0,0
12.02.2020 20:00:00 5,6 -0,7 0,2 8,0 9,1 6 3 16 9 WSW 1023,3 50 0 0,0
12.02.2020 19:00:00 6,2 0,1 2,5 8,0 9,0 11 6 19 10 SSW 1023,5 60 0 0,0
12.02.2020 18:00:00 9,0 -0,1 8,1 8,0 9,0 14 8 25 13 W 1023,1 56 44 0,0
12.02.2020 17:00:00 10,2 -0,1 10,8 8,0 9,0 15 8 27 15 W 1023,1 44 48 0,0
12.02.2020 16:00:00 10,8 -0,1 12,7 8,0 9,0 10 5 19 10 NNE 1023,4 58 53 0,0
12.02.2020 15:00:00 10,0 -0,5 11,6 8,1 9,0 10 5 31 17 WSW 1024,4 58 20 0,0
12.02.2020 14:00:00 10,8 -0,4 11,9 8,1 9,0 11 6 24 13 SSW 1024,7 41 23 0,0
12.02.2020 13:00:00 10,0 -0,2 11,0 8,1 9,0 9 5 27 14 WSW 1025,8 59 47 0,0
12.02.2020 12:00:00 9,5 0,4 11,6 8,2 9,0 11 6 26 14 SSW 1026,6 54 56 0,0
12.02.2020 11:00:00 7,8 0,5 9,0 8,2 9,0 13 7 21 12 S 1027,0 20 55 0,0
12.02.2020 10:00:00 6,1 0,2 7,2 8,2 9,0 5 3 11 6 SSE 1027,0 45 56 0,0
12.02.2020 09:00:00 3,6 -0,4 -0,6 8,3 9,1 3 1 12 7 WSW 1027,1 46 39 0,0
12.02.2020 08:00:00 1,7 -1,9 -0,5 8,2 9,0 9 5 16 9 SSW 1026,7 60 0 0,0
12.02.2020 07:00:00 3,5 -1,3 -0,8 8,3 9,0 8 4 17 9 SSW 1026,2 60 0 0,0
12.02.2020 06:00:00 4,7 -0,5 1,8 8,3 9,0 6 4 11 6 SSW 1026,4 59 0 0,0
12.02.2020 05:00:00 4,5 -0,5 -1,6 8,3 9,0 4 2 13 7 S 1025,9 59 0 0,0
12.02.2020 04:00:00 3,6 -0,8 -1,6 8,3 9,0 5 3 15 8 S 1025,6 60 0 0,0
12.02.2020 03:00:00 2,9 -1,8 -1,0 8,3 9,0 6 4 9 5 S 1026,1 58 0 0,0
12.02.2020 02:00:00 5,5 -1,4 1,5 8,3 9,0 6 3 27 14 SSE 1025,7 59 0 0,0
12.02.2020 01:00:00 6,6 -1,3 4,8 8,3 9,0 16 9 42 23 W 1025,2 57 0 0,0
12.02.2020 00:00:00 6,5 -0,3 4,9 8,3 9,0 21 12 47 26 W 1024,7 52 0 0,0
11.02.2020 23:00:00 7,2 -0,1 6,0 8,3 9,0 20 11 39 21 WNW 1025,0 49 0 0,0
11.02.2020 22:00:00 8,0 0,7 6,2 8,3 9,0 16 9 40 22 W 1024,5 50 0 0,0

tt = Température de l'air
td = dewpoint
tt 5cm = Température de l'air 5cm
tt -20cm = Température de l'air -20cm
tt -100cm = Température de l'air -100cm
ff = Vitesse du vent
fx = gusts
dd = Direction du vent
ppp = reduced air pressure
vv = visibility
sd = Ensoleillement
rr = Quantités de précipitations

stations d'obs. à proximité